Cochrane, Alberta

7:25 PM MDT on July 25, 2017 (GMT -0600)
Cochrane

Weather History for 71860 - July, 2013

Change the Weather History Date:

Saturday, July 13, 2013

  Actual Average Record
Temperature  
Mean Temperature 52 °F -  
Max Temperature 62 °F 70 °F - ()
Min Temperature 43 °F 43 °F - ()
Degree Days  
Heating Degree Days 12    
Growing Degree Days 2 (Base 50)    
Moisture  
Dew Point 44 °F    
Average Humidity 72    
Maximum Humidity 100    
Minimum Humidity 46    
Precipitation  
Precipitation 0.03 in - - ()
Sea Level Pressure  
Sea Level Pressure 30.18 in    
Wind  
Wind Speed 7 mph ()    
Max Wind Speed 14 mph    
Max Gust Speed 25 mph    
Visibility 17.9 miles    
Events Rain , Thunderstorm    
T = Trace of Precipitation, MM = Missing Value Source: Averaged Metar Reports

Daily Weather History Graph

Daily Weather History Graph

Search for Another Location

Airport or City:

Trip Planner

Search our weather history database for the weather conditions in past years. The results will help you decide how hot, cold, wet, or windy it might be!

Date:

Astronomy

Jul. 13, 2013 Rise Set
Actual Time 5:37 AM MDT 9:48 PM MDT
Civil Twilight 4:53 AM MDT 10:32 PM MDT
Nautical Twilight 3:48 AM MDT 11:36 PM MDT
Astronomical Twilight 2:16 AM MDT 1:11 AM MDT
Moon 11:41 AM MDT (7/13) 11:44 PM MDT (7/13)
Length of Visible Light 17h 39m
Length of Day
16h 10m
Waxing Crescent, 26% of the Moon is Illuminated
Jul 13
Waxing Crescent
Jul 15
First Quarter
Jul 22
Full
Jul 29
Last Quarter
Aug 6
New

Hourly Weather History & Observations

Time (MDT) Temp. Windchill Dew Point Humidity Pressure Visibility Wind Dir Wind Speed Gust Speed Precip Events Conditions
5:00 AM 44.6 °F 43.1 °F 42.8 °F 93% 30.11 in 15.0 mi SSW 3.5 mph - N/A Rain Light Rain
6:00 AM 44 °F - 43 °F 95% 30.12 in 15 mi WSW 8.9 mph - -   Overcast
6:00 AM 44.6 °F 41.4 °F 42.8 °F 93% 30.12 in 15.0 mi WSW 5.8 mph - N/A Rain Light Rain
6:23 AM 44.6 °F 42.2 °F 42.8 °F 93% 30.12 in 20.0 mi SW 4.6 mph - N/A   Overcast
7:00 AM 44.6 °F 40.7 °F 44.6 °F 100% 30.14 in 20.0 mi South 6.9 mph - N/A   Overcast
8:00 AM 44.6 °F 41.4 °F 44.6 °F 100% 30.16 in 20.0 mi South 5.8 mph - N/A   Mostly Cloudy
9:00 AM 46.4 °F 41.9 °F 44.6 °F 93% 30.18 in 20.0 mi South 9.2 mph - N/A   Mostly Cloudy
10:00 AM 48.2 °F - 44.6 °F 87% 30.18 in 30.0 mi South 8.1 mph - N/A   Mostly Cloudy
11:00 AM 53.6 °F - 46.4 °F 77% 30.17 in 30.0 mi SSE 6.9 mph - N/A   Scattered Clouds
12:00 PM 56 °F - 45 °F 56% 30.17 in 28 mi SSE 13.4 mph - -   Partly Cloudy
12:00 PM 57.2 °F - 44.6 °F 63% 30.16 in 30.0 mi SSE 6.9 mph - N/A   Scattered Clouds
1:00 PM 59.0 °F - 46.4 °F 63% 30.17 in 30.0 mi SE 11.5 mph 17.3 mph N/A   Scattered Clouds
2:00 PM 59.0 °F - 42.8 °F 55% 30.18 in 30.0 mi SE 5.8 mph - N/A   Mostly Cloudy
2:41 PM 55.4 °F - 41.0 °F 58% 30.22 in 25.0 mi Variable 13.8 mph 25.3 mph N/A Rain Light Rain Showers
2:54 PM 51.8 °F - 44.6 °F 76% 30.21 in 25.0 mi SSE 11.5 mph - N/A Rain , Thunderstorm Light Thunderstorms and Rain
3:00 PM 53.6 °F - 42.8 °F 67% 30.20 in 30.0 mi SE 6.9 mph - N/A   Mostly Cloudy
4:00 PM 60.8 °F - 44.6 °F 55% 30.19 in 30.0 mi SSE 8.1 mph - N/A   Scattered Clouds
5:00 PM 62.6 °F - 44.6 °F 52% 30.20 in 30.0 mi South 11.5 mph - N/A   Scattered Clouds
6:00 PM 60 °F - 45 °F 46% 30.22 in 28 mi South 9.2 mph - -   Mostly Cloudy
6:00 PM 60.8 °F - 44.6 °F 55% 30.21 in 30.0 mi South 9.2 mph - N/A   Mostly Cloudy
7:00 PM 60.8 °F - 46.4 °F 59% 30.21 in 30.0 mi SE 8.1 mph - N/A   Mostly Cloudy
8:00 PM 59.0 °F - 44.6 °F 59% 30.22 in 30.0 mi SE 8.1 mph - N/A   Mostly Cloudy
9:00 PM 57.2 °F - 44.6 °F 63% 30.24 in 30.0 mi SE 9.2 mph - N/A   Mostly Cloudy
10:00 PM 53.6 °F - 44.6 °F 72% 30.24 in 30.0 mi SE 9.2 mph - N/A   Mostly Cloudy